COSMOS 1257

Satellite information

Favourite Embed

Satellite Type and Status

PAYLOADIN ORBIT

Key statistics

Satellite COSMOS 1257 at a glance.

Uptime

16359

Days in orbit

Revolutions

≈ 12.5

Per day

Orbit

LEO

Low Earth Orbit

Inclination

74.0

Latest

Satellite identification and parameters

Extended collection of information and parameters for COSMOS 1257.

Object identification

Identified? True

Debris? False

Object name: COSMOS 1257

International designator: 1981-022H

Object number (NORAD): 12327

Object ID (CCSDS): 12327

Country: COMMONWEALTH OF INDEPENDENT STATES (CIS)

Current information (Y/N): Y

RCS size: MEDIUM

Orbital parameters

Period: 115.398 minutes

Inclination: 74.0305 deg

SMA: 7851.62 km

Apoapsis: 1479.331 km

Periapsis: 1467.638 km

RAAN: 297.932 deg

Eccentricy: 0.0007446

Argument of periapsis: 212.4092 deg

Mean anomaly: 205.3603 deg

Mean motion: 12.47854287 rev/day

Mean motion (dot): -0.00000024 rev/day2

B* drag term: -0.000053795415 1/REarth

Two-line elements (TLE)

Creation date: Dec. 19, 2025, 2:08 a.m.

Reference frame: TEME

Reference center: EARTH

Epoch: Dec. 18, 2025, 9:54 p.m. UTC

TLE line 0: 0 COSMOS 1257

TLE line 1: 1 12327U 81022H 25352.91273993 -.00000024 00000-0 -53795-4 0 9999

TLE line 2: 2 12327 74.0305 297.9320 0007446 212.4092 205.3603 12.47854287 40189

Live tracking on map

Real-time ground track for satellite COSMOS 1257.

In-orbit conjunctions

A list of the most updated potential collisions computed for object COSMOS 1257.

Target Orbit TCA Probability of collision Miss distance Type
COSMOS 1823 DEB LEO 2024-10-19 05:35:22 0.0001691142 647.0 (m) DEBRIS

Associated space launch

Military communications satellites

COSMOS 1257 was lifted into orbit during the mission ‘Kosmos-3M | Strela-1M 209-216’, on board a Kosmos-3M space rocket.

The launch took place on March 6, 1981, 11:31 a.m. from 132/2.

For more information about the launch, click the button.

Launch to space Kosmos-3M | Strela-1M 209-216
Kosmos-3M | Strela-1M 209-216

Agency: N/A

Status: Launch Successful

Launch date: March 6, 1981, 11:31 a.m. UTC

Rocket: Kosmos-3M

Launch pad: 132/2

Location: Plesetsk Cosmodrome, Russian Federation

...

Latest news about this satellite

There are no fresh news available about this satellite. Check back as we update our databases every day.


Newsletter sign-up

Weekly statistics, charts and insights to help you stay on top of the space industry.